Location: Arrodets-la-Barthe
(43.0306°N, 0.2829°E)
Time: 10:56:53
(UTC+00:00)

Cosmos 2278 - Pass Details

Date: 02 June 2022
Orbit: 838 x 854 km, 71.1° (Epoch: 01 July)

Event Time Altitude Azimuth Distance (km) Brightness Sun altitude
Rises 21:38:28 0° 256° (WSW) 3,394 7.1 -17.3°
Reaches altitude 10° 21:41:56 10° 277° (W) 2,467 6.7 -17.7°
Maximum altitude 21:45:20 16° 315° (NW) 2,076 6.8 -18.0°
Drops below altitude 10° 21:48:46 10° 352° (N) 2,481 7.2 -18.3°
Sets 21:52:17 0° 14° (NNE) 3,424 7.6 -18.7°
